UKUBE-1

Last updated on Sat Aug 15 2026 00:03:44 GMT+0000 (Coordinated Universal Time)

1 40074U 14037F 26226.52784147 .00004224 00000+0 23475-3 0 9991 2 40074 98.4255 235.9743 0001588 43.4876 316.6478 15.14348364657380
UTC large
Height (km)
Speed (km/s)
/
Latitude / Longitude
Inclination (degrees)
Orbital Period (minutes)
Azimuth
Elevation
Range (km)
Doppler Factor

Next 0 passes for location: London (51.5072 / 0.1276)

No passes found over London.
UKUBE-1